Погода в Зебир-Юрте

Россия / Чеченская Республика     43°30′34″N   45°21′36″E
темп.,
°C
ветер,
м/с
пор.,
м/с
влажн.,
%
обл.,
%
осадки,
мм/ч
давл.,
гПа
погр.,
м
13 апреля, вт
вт1300:00+10сз2480100 0.0 1022239
03:00+9зсз3584100 0.1 1022276
06:00+9ссз127999 0.0 1022147
09:00+10ссз2275100 0.0 1022438
12:00+12ссз227299 0.0 1021680
15:00+15зсз326126 0.0 1019836
18:00+13зсз357291 0.2 1019223
21:00+11з4874100 0.2 1019434
14 апреля, ср
ср1400:00+10з3788100 0.1 1018327
03:00+10зсз488498 0.3 1017401
06:00+10з388399 0.0 1017486
09:00+13зсз5667100 0.0 1017806
12:00+13з4666100 0.0 1017920
15:00+15зсз4558100 0.1 10161247
18:00+13ссз3470100 0.0 1017100
21:00+10з22825 0.0 101821
15 апреля, чт
чт1500:00+9зюз22854 0.0 101716
03:00+8з22855 0.0 101713
06:00+8зюз33845 0.0 101755
09:00+15сз33565 0.0 1017667
12:00+18с33455 0.0 10161224
15:00+20с32390 0.0 10151615
18:00+17св23485 0.0 101530
21:00
16 апреля, пт
пт1600:00+12с0052100 0.0 101610
03:00+11юв115544 0.0 101610
06:00+11юв115983 0.0 101710
09:00+16в344688 0.0 1017639
12:00+19всв563676 0.0 10151527
15:00+21в56365 0.0 10141838
18:00+17в610476 0.0 1014373
21:00+12всв1168100 0.3 101611
17 апреля, сб
сб1700:00+11з1175100 0.3 101611
03:00+11зсз3374100 0.3 101636
06:00+10зсз4781100 0.0 1017229
09:00+13зсз6780100 0.0 1019771
12:00+13сз5676100 0.1 1019914
15:00+10ссз5888100 0.7 1021729
18:00+9зсз4790100 0.8 1024438
21:00+9ююз1187100 0.9 102278